TimeEDT,TemperatureF,Dew PointF,Humidity,Sea Level PressureIn,VisibilityMPH,Wind Direction,Wind SpeedMPH,Gust SpeedMPH,PrecipitationIn,Events,Conditions,WindDirDegrees,DateUTC
12:06 AM,68.0,64.4,88,29.67,2.5,East,6.9,-,0.03,Rain-Thunderstorm,Light Rain,100,2013-06-13 04:06:00
12:09 AM,68.0,64.4,88,29.66,3.0,East,8.1,-,0.03,Rain-Thunderstorm,Light Rain,100,2013-06-13 04:09:00
12:19 AM,68.0,64.4,88,29.67,2.5,Calm,Calm,-,0.06,Rain-Thunderstorm,Light Rain,0,2013-06-13 04:19:00
12:21 AM,68.0,66.2,94,29.66,2.0,Calm,Calm,-,0.11,Rain,Heavy Rain,0,2013-06-13 04:21:00
12:26 AM,68.0,66.2,94,29.65,1.2,Variable,3.5,-,0.18,Rain,Heavy Rain,0,2013-06-13 04:26:00
12:28 AM,68.0,66.2,94,29.65,1.0,NE,6.9,-,0.19,Rain-Thunderstorm,Thunderstorms and Rain,50,2013-06-13 04:28:00
12:48 AM,68.0,64.4,88,29.64,2.0,ENE,9.2,-,0.25,Rain,Rain,70,2013-06-13 04:48:00
12:54 AM,68.0,64.4,88,29.63,3.0,East,9.2,-,0.26,Rain,Light Rain,100,2013-06-13 04:54:00
12:56 AM,68.0,64.9,90,29.61,3.0,East,10.4,-,0.26,Rain,Light Rain,90,2013-06-13 04:56:00
1:07 AM,66.2,64.4,94,29.62,3.0,East,10.4,-,0.03,Rain-Thunderstorm,Light Thunderstorms and Rain,80,2013-06-13 05:07:00
1:16 AM,68.0,64.4,88,29.60,3.0,Variable,4.6,-,0.06,Rain-Thunderstorm,Thunderstorms and Rain,0,2013-06-13 05:16:00
1:21 AM,68.0,64.4,88,29.60,3.0,SE,5.8,-,0.08,Rain,Light Rain,130,2013-06-13 05:21:00
1:37 AM,66.2,64.4,94,29.57,3.0,ESE,12.7,-,0.10,Rain-Thunderstorm,Light Rain,120,2013-06-13 05:37:00
1:46 AM,66.2,64.4,94,29.58,4.0,Variable,6.9,-,0.11,Rain,Light Rain,0,2013-06-13 05:46:00
1:56 AM,68.0,64.0,87,29.55,8.0,SSE,13.8,20.7,0.13,Rain,Light Rain,160,2013-06-13 05:56:00
2:08 AM,68.0,64.4,88,29.56,8.0,East,11.5,18.4,0.01,Rain,Light Rain,100,2013-06-13 06:08:00
2:25 AM,64.4,62.6,94,29.55,4.0,East,8.1,18.4,0.09,Rain,Rain,80,2013-06-13 06:25:00
2:34 AM,64.4,62.6,94,29.57,3.0,NE,8.1,-,0.12,Rain,Rain,50,2013-06-13 06:34:00
2:56 AM,64.0,63.0,96,29.58,2.5,North,9.2,18.4,0.19,Rain,Heavy Rain,360,2013-06-13 06:56:00
3:12 AM,64.4,62.6,94,29.60,1.8,North,10.4,-,0.17,Rain,Heavy Rain,360,2013-06-13 07:12:00
3:17 AM,64.4,62.6,94,29.60,2.0,North,9.2,17.3,0.20,Rain,Heavy Rain,10,2013-06-13 07:17:00
3:33 AM,64.4,62.6,94,29.58,4.0,NNE,13.8,23.0,0.25,Rain,Light Rain,30,2013-06-13 07:33:00
3:42 AM,64.4,62.6,94,29.59,7.0,NNE,13.8,24.2,0.25,Rain,Light Rain,30,2013-06-13 07:42:00
3:56 AM,64.0,63.0,96,29.59,7.0,North,5.8,-,0.25,,Overcast,360,2013-06-13 07:56:00
4:05 AM,64.4,62.6,94,29.60,5.0,NNE,8.1,-,0.01,,Overcast,20,2013-06-13 08:05:00
4:48 AM,64.4,62.6,94,29.61,6.0,NNE,6.9,-,0.01,,Overcast,20,2013-06-13 08:48:00
4:56 AM,64.0,62.1,93,29.60,6.0,NNE,6.9,-,0.01,,Mostly Cloudy,20,2013-06-13 08:56:00
5:38 AM,62.6,60.8,94,29.67,2.5,NNE,9.2,17.3,0.01,Rain,Light Rain,20,2013-06-13 09:38:00
5:45 AM,62.6,59.0,88,29.68,6.0,NNE,10.4,23.0,0.01,Rain,Light Rain,20,2013-06-13 09:45:00
5:56 AM,61.0,57.0,87,29.67,10.0,North,10.4,21.9,0.01,,Overcast,10,2013-06-13 09:56:00
6:29 AM,60.8,57.2,88,29.69,9.0,North,6.9,-,0.00,Rain,Light Rain,360,2013-06-13 10:29:00
6:56 AM,60.1,57.0,90,29.69,8.0,North,6.9,-,0.01,Rain,Light Rain,360,2013-06-13 10:56:00
7:56 AM,61.0,57.0,87,29.71,10.0,North,6.9,-,0.00,,Overcast,350,2013-06-13 11:56:00
8:56 AM,63.0,57.9,84,29.74,10.0,North,10.4,16.1,N/A,,Mostly Cloudy,350,2013-06-13 12:56:00
9:56 AM,64.9,57.0,75,29.76,10.0,NNW,9.2,-,N/A,,Clear,330,2013-06-13 13:56:00
10:56 AM,70.0,57.0,63,29.76,10.0,NNW,9.2,18.4,N/A,,Clear,340,2013-06-13 14:56:00
11:56 AM,72.0,55.0,55,29.78,10.0,North,10.4,19.6,N/A,,Clear,350,2013-06-13 15:56:00
12:56 PM,73.9,55.0,52,29.80,10.0,Variable,5.8,17.3,N/A,,Clear,0,2013-06-13 16:56:00
1:56 PM,75.0,55.0,50,29.81,10.0,North,5.8,-,N/A,,Partly Cloudy,360,2013-06-13 17:56:00
2:56 PM,75.0,55.0,50,29.83,10.0,North,8.1,-,N/A,,Partly Cloudy,350,2013-06-13 18:56:00
3:56 PM,75.9,55.0,48,29.83,10.0,NNW,9.2,16.1,N/A,,Partly Cloudy,340,2013-06-13 19:56:00
4:56 PM,75.0,54.0,48,29.84,10.0,North,6.9,-,N/A,,Scattered Clouds,350,2013-06-13 20:56:00
5:56 PM,72.0,52.0,49,29.85,10.0,North,6.9,-,N/A,,Overcast,350,2013-06-13 21:56:00
6:56 PM,68.0,57.0,68,29.88,10.0,NNE,4.6,-,N/A,,Mostly Cloudy,20,2013-06-13 22:56:00
7:56 PM,68.0,55.9,65,29.89,10.0,North,9.2,20.7,N/A,,Overcast,10,2013-06-13 23:56:00
8:56 PM,66.0,57.9,75,29.90,10.0,NNW,4.6,-,N/A,,Overcast,340,2013-06-14 00:56:00
9:56 PM,64.0,57.0,78,29.91,10.0,North,3.5,-,N/A,,Scattered Clouds,350,2013-06-14 01:56:00
10:56 PM,64.0,57.9,80,29.93,10.0,North,3.5,-,N/A,,Mostly Cloudy,350,2013-06-14 02:56:00
11:56 PM,63.0,55.9,78,29.96,10.0,North,4.6,-,N/A,,Clear,350,2013-06-14 03:56:00